パンスターズ彗星

C/2023 Q1 ( PanSTARRS )

English version
Home page
Updated on September 4, 2024

---------------------------------------------------------------------

・ プロフィール

発見日 2023年8月20日
発見光度 22.0等
発見者 Pan-STARRS 1 telescope (Haleakala)

・ 写真集

・ 軌道要素

Epoch 2024 Oct. 17.0 TT = JDT 2460600.5
T 2024 Dec. 1.14221 TT                                  Rudenko
q   2.5757027            (2000.0)            P               Q
z  -0.0020688      Peri.   84.41071     -0.00254736     -0.99724503
 +/-0.0000048      Node     7.13528     +0.50180378     -0.06539951
e   1.0053286      Incl.   36.64342     +0.86497773     +0.03500365
>From 221 observations 2023 July 25-2024 Sept. 1, mean residual 0".6.

・ 星図

・ 光度変化

        m1 = 9.5 + 5 logΔ + 10.0 log r

---------------------------------------------------------------------

軌道要素はM.P.E.C. 2024-R10に掲載されたものです。
星図はステラナビゲータ Ver.11 (アストロアーツ) で作成したものです。
光度グラフはComet for Windowsで作成したものです。

---------------------------------------------------------------------

Copyright(C) Seiichi Yoshida (comet@aerith.net). All rights reserved.